Location: Nairn
(57.5833°N, 3.8667°W)
Time: 21:47:25
(UTC+00:00)

Tiros 1 - Pass Details

Date: 26 September 2022
Orbit: 629 x 662 km, 48.4° (Epoch: 08 December)

Event Time Altitude Azimuth Distance (km) Brightness Sun altitude
Exits shadow 03:42:57 22° 179° (S) 1,437 8.6 -19.4°
Maximum altitude 03:43:46 23° 164° (SSE) 1,395 8.7 -19.3°
Drops below altitude 10° 03:47:26 10° 113° (ESE) 2,048 10.2 -18.9°
Sets 03:50:09 0° 99° (E) 2,953 11.4 -18.6°
